Flag for U.S.A. Weather past 2 weeks in San Francisco, California, U.S.A.

Now
64 °F

Passing clouds.


Feels Like: 64 °F
Forecast: 62 / 68 °F
Wind: 12 mph from West

Location: San Francisco International Airport

Current Time: Aug 2, 2015 at 10:57:13 PM

Latest Report: Aug 2, 2015 at 9:56 PM


Visibility: 10 mi

Pressure: 29.93 "Hg

Humidity: 75%

Dew point: 56 °F

Location of San FranciscoLocation

Historic Weather in San Francisco — Graph

°F

San Francisco temperature yesterday

Maximum temperature yesterday: 75 °F (at 2:56 PM)
Minimum temperature yesterday: 62 °F (at 3:56 AM)
Average temperature yesterday: 67 °F

Past Weeks' High & Low Weather Summary

 TemperatureHumidityPressure
High87 °F (Jul 19, 2:56 PM)93% (Jul 29, 5:56 AM)30.13 "Hg (Jul 29, 5:56 AM)
Low57 °F (Jul 27, 4:56 AM)30% (Jul 28, 1:56 PM)29.82 "Hg (Jul 28, 6:56 PM)
Average66 °F71%29.97 "Hg
* Reported Jul 18 9:56 PM — Aug 2 9:56 PM, San Francisco, Weather by CustomWeather, © 2015

Note: Actual official high and low records may vary slightly from our data, if they occured in-between our weather recording intervals... More about our weather records

Advertising

San Francisco weather history for previous 24 hours

 ConditionsComfort  
Time TempWeatherWind HumidityBarometerVisibility
9:56 PM
Sun, Aug 2
64 °FPassing clouds.12 mph75%29.93 "Hg10 mi
8:56 PM65 °FScattered clouds.13 mph70%29.91 "Hg10 mi
7:56 PM66 °FScattered clouds.12 mph68%29.91 "Hg10 mi
6:56 PM67 °FScattered clouds.16 mph66%29.91 "Hg10 mi
5:56 PM69 °FScattered clouds.17 mph61%29.92 "Hg10 mi
4:56 PM70 °FScattered clouds.21 mph59%29.92 "Hg10 mi
3:56 PM70 °FPartly sunny.20 mph59%29.93 "Hg10 mi
2:56 PM71 °FPartly sunny.18 mph59%29.95 "Hg10 mi
1:56 PM70 °FPartly sunny.16 mph61%29.97 "Hg10 mi
12:56 PM68 °FBroken clouds.12 mph65%29.98 "Hg10 mi
11:56 AM68 °FPartly sunny.15 mph65%29.99 "Hg10 mi
10:56 AM65 °FPartly sunny.14 mph73%30.00 "Hg10 mi
9:56 AM63 °FPartly sunny.10 mph78%30.00 "Hg10 mi
8:56 AM63 °FMostly cloudy.9 mph81%29.99 "Hg10 mi
7:56 AM62 °FMostly cloudy.9 mph80%29.98 "Hg10 mi
6:56 AM62 °FMostly cloudy.10 mph80%29.97 "Hg10 mi
5:56 AM62 °FMostly cloudy.9 mph83%29.95 "Hg10 mi
4:56 AM62 °FMostly cloudy.7 mph83%29.95 "Hg10 mi
3:56 AM63 °FMostly cloudy.12 mph81%29.96 "Hg10 mi
2:56 AM63 °FMostly cloudy.7 mph81%29.96 "Hg10 mi
1:56 AM63 °FPartly cloudy.9 mph81%29.96 "Hg10 mi
12:56 AM63 °FPartly cloudy.9 mph81%29.96 "Hg10 mi
11:56 PM
Sat, Aug 1
64 °FPartly cloudy.7 mph81%29.97 "Hg10 mi
10:56 PM64 °FPartly cloudy.12 mph78%29.98 "Hg10 mi
Weather by CustomWeather, © 2015

See weather overviewHow to use our weather pages